loading
|
Showing default

CAPELLA-14 (ACADIA), 59444

Orbit data source: Space-Track

CAPELLA-14 (ACADIA), 59444 is a payload satellite owned by Capella Space (US) in LEO that was launched on Sun, 07 Apr 2024 UTC via an FALCON 9 launch vehicle from the Air Force Eastern Test Range (AFETR). Payloads include a variety of satellites, spacecraft, and rockets equipped with specific instruments for various scientific and technological missions. These include communications satellites like Starlink; space stations such as the ISS; scientific satellites like the Hubble; Earth observation satellites from companies like Planet Labs, Umbra, and HawkEye 360; GPS; miniature CubeSats for education and research; and military/defense satellites.

Loading next visibility...
Loading greatness...
CAPELLA-14 (ACADIA) details
Identifier
59444, 2024-066C
Orbit
LEO
Last TLE update11 hours ago
Origin
Flag of USCapella Space (US)
ManufacturerCapella Space
Mission statusOperational
MissionUnknown
Bus & MotorACADIA, Unknown motor
Mass180 kg wet, ~150 kg dry
Launch date (UTC)
2024-04-07 (5 months ago)
Launch vehicle
FALCON 9
Launch site
Air Force Eastern Test Range (AFETR)
Object type
Payload
Rocket body
Debris
Radar Cross SectionLarge (>1 m²)

Expand to show TLE details & history

TLE from 11 hours ago
0 CAPELLA-14 (ACADIA)
1 59444U 24066C   24261.48408585  .00074666  00000-0  74185-2 0  9997
2 59444  45.6101 325.5240 0001385 354.0391   6.0470 14.90857226 24230
Epoch: 2024-09-17T11:37Z
Definitive object data (Epoch: 2024-09-17T11:37:05.017Z)
Latitude-0.00004°
Longitude154.35497°
Altitude594.367 km
Speed7.565 km/s
True Right ascension21h 42m 05s
True Declination0° 00' 00"
Sunlit
Object was in full shadow at TLE epoch
Predictive object data (real-time)
Latitude-12.69831°
Longitude-15.2126°
Altitude598.526 km
Speed7.561 km/s
Apparent Right ascension07h 34m 41s
Apparent Declination-39° 33' 09"
Sunlit
Object is in daylight
Predictive observer data (real-time)
Local Sidereal Time14:57:51
Azimuth246.543° WSW
Elevation-38.208°
Doppler factor1
Orbital elements
Apogee597.71 km
Perigee595.778 km
Semi-major axis6,974.881 km
Eccentricity0.0001385
Inclination45.6101°
RAAN325.524°
Arg. of periapsis354.0391°
True anomaly6.04867°
Mean anomaly6.047°
Eccentric anomaly6.04784°
Mean motion3.72596 °/min
BSTAR0.0074185
Period96.62 mins
No data available

CAPELLA-14 (ACADIA) Visibility forecast

Observer location: 39.9160978°, -105.1181434

CAPELLA-14 (ACADIA) is not visible in the next 10 days
Span
Click to sort rows by Start time (UTC) header in descending order
Start Az.
Max El. time (UTC)
Max El. Az.
Max El.
End time (UTC)
End Az.